Location: Anciles
(42.5833°N, 0.5167°E)
Time: 23:20:32
(UTC+00:00)

Cosmos 2369 Rocket - Pass Details

Date: 10 December 2019
Orbit: 828 x 853 km, 71.0° (Epoch: 18 January)

Event Time Altitude Azimuth Distance (km) Brightness Sun altitude
Rises 19:02:11 0° 338° (NNW) 3,391 5.5 -28.1°
Reaches altitude 10° 19:04:40 10° 342° (NNW) 2,456 4.7 -28.6°
Enters shadow 19:07:05 26° 352° (N) 1,608 3.6 -29.0°
